Location: Izdebno
(52.6670°N, 16.2170°E)
Time: 17:55:59
(UTC+01:00)

Transit 2A - Pass Details

Date: 01 February 2023
Orbit: 591 x 964 km, 66.7° (Epoch: 21 March)

Event Time Altitude Azimuth Distance (km) Brightness Sun altitude
Rises 02:04:37 0° 319° (NW) 3,439 - -47.9°
Reaches altitude 10° 02:07:02 10° 318° (NW) 2,548 - -47.7°
Maximum altitude 02:12:59 71° 235° (SW) 984 - -47.0°
Drops below altitude 10° 02:19:16 10° 153° (SSE) 2,687 - -46.3°
Sets 02:21:52 0° 152° (SSE) 3,639 - -46.0°
